KCNM

Cavern City Air Terminal

Airport
ICAO code
KCNM
Summary
ICAO Region
NAM
ICAO Territory
Location

Carlsbad, New Mexico,

Coordinates
32° 20' 15" N , 104° 15' 48" W
KCC
Airport LOS
Parallel Runway Operation
Airport RE
Hot and High Operations
Airport WX
Tornado
Metar
Observation
KCNM 080053Z AUTO 32015KT 10SM BKN042 OVC055 05/M01 A3019 RMK AO2 SLP217 T00501011
Station
Carlsbad, Cavern City Air Terminal Airport
Date/Time
2023-02-08 01:53:00
Wind direction
320°
Wind speed
15 kts
Lowest cloud amount
broken clouds
Temperature
5°C
Dew point
-1.1°C
Humidity
64%
Weather condition
n/a

Description

Cavern City Air Terminal is a public use airport located 9 km southwest of the central business district of Carlsbad, a city in Eddy County, New Mexico.

Climatology

A semi-arid climate (Köppen climate classification BSk), with generally cold, dry winters and hot summers. Late spring and early summer is on average the wettest period of the year.

Airport map

Aerial View

SKYbrary Partners:

Safety knowledge contributed by: